Orbital Elements at Epoch 2459200.5 (2020-Dec-17.0) TDB
Reference: JPL 14 (heliocentric ecliptic J2000)
Element | Value | Uncertainty (1-sigma) | Units |
e | .2060707573117948 | 2.949e-08 | |
a | 2.375837395814547 | 8.6872e-09 | au |
q | 1.886246784409361 | 7.2381e-08 | au |
i | 1.831562681230925 | 5.3046e-06 | deg |
node | 194.8512571493738 | 0.00010305 | deg |
peri | 89.10557373965597 | 0.00010398 | deg |
M | 113.2167322027955 | 1.4299e-05 | deg |
tp | 2458779.839617389051 (2019-Oct-23.33961739) | 5.2097e-05 | TDB |
period | 1337.591491942057 3.66 | 7.3363e-06 2.009e-08 | d yr |
n | .2691404678997427 | 1.4762e-09 | deg/d |
Q | 2.865428007219733 | 1.0477e-08 | au |
|
| | Orbit Determination Parameters
Additional Information
|